Time,TemperatureF,DewpointF,PressureIn,WindDirection,WindDirectionDegrees,WindSpeedMPH,WindSpeedGustMPH,Humidity,HourlyPrecipIn,Conditions,Clouds,dailyrainin,SolarRadiationWatts/m^2,SoftwareType,DateUTC
2013-05-27 00:22:00,43.0,33.0,-100.00,East,83,1.0,3.0,68,0.00,,,0.00,0.000000,,2013-05-27 05:22:00,
2013-05-27 00:32:00,43.0,33.0,-100.00,East,83,1.0,3.0,68,0.00,,,0.00,0.000000,,2013-05-27 05:32:00,
2013-05-27 00:42:00,43.0,33.0,-100.00,East,83,1.0,3.0,68,0.00,,,0.00,0.000000,,2013-05-27 05:42:00,
2013-05-27 00:52:00,43.0,33.0,-100.00,East,83,1.0,3.0,68,0.00,,,0.00,0.000000,,2013-05-27 05:52:00,
2013-05-27 01:01:00,43.0,33.0,-100.00,East,83,1.0,3.0,68,0.00,,,0.00,0.000000,,2013-05-27 06:01:00,
2013-05-27 01:02:00,40.0,34.0,-100.00,ESE,109,2.0,8.0,78,0.00,,,0.00,0.000000,,2013-05-27 06:02:00,
2013-05-27 01:22:00,40.0,34.0,-100.00,ESE,109,2.0,8.0,78,0.00,,,0.00,0.000000,,2013-05-27 06:22:00,
2013-05-27 01:32:00,40.0,34.0,-100.00,ESE,109,2.0,8.0,78,0.00,,,0.00,0.000000,,2013-05-27 06:32:00,
2013-05-27 01:42:00,40.0,34.0,-100.00,ESE,109,2.0,8.0,78,0.00,,,0.00,0.000000,,2013-05-27 06:42:00,
2013-05-27 01:52:00,40.0,34.0,-100.00,ESE,109,2.0,8.0,78,0.00,,,0.00,0.000000,,2013-05-27 06:52:00,
2013-05-27 02:02:00,42.0,35.0,-100.00,SE,135,2.0,6.0,76,0.00,,,0.00,0.000000,,2013-05-27 07:02:00,
2013-05-27 02:21:00,42.0,35.0,-100.00,SE,135,2.0,6.0,76,0.00,,,0.00,0.000000,,2013-05-27 07:21:00,
2013-05-27 02:32:00,42.0,35.0,-100.00,SE,135,2.0,6.0,76,0.00,,,0.00,0.000000,,2013-05-27 07:32:00,
2013-05-27 02:42:00,42.0,35.0,-100.00,SE,135,2.0,6.0,76,0.00,,,0.00,0.000000,,2013-05-27 07:42:00,
2013-05-27 02:52:00,42.0,35.0,-100.00,SE,135,2.0,6.0,76,0.00,,,0.00,0.000000,,2013-05-27 07:52:00,
2013-05-27 04:02:00,42.0,32.0,-100.00,SE,125,2.0,5.0,67,-99.99,,,0.00,0.000000,,2013-05-27 09:02:00,
2013-05-27 04:22:00,42.0,32.0,-100.00,SE,125,2.0,5.0,67,-99.99,,,0.00,0.000000,,2013-05-27 09:22:00,
2013-05-27 04:33:00,42.0,32.0,-100.00,SE,125,2.0,5.0,67,-99.99,,,0.00,0.000000,,2013-05-27 09:33:00,
2013-05-27 04:42:00,42.0,32.0,-100.00,SE,125,2.0,5.0,67,-99.99,,,0.00,0.000000,,2013-05-27 09:42:00,
2013-05-27 04:53:00,42.0,32.0,-100.00,SE,125,2.0,5.0,67,-99.99,,,0.00,0.000000,,2013-05-27 09:53:00,
2013-05-27 05:02:00,43.0,30.0,-100.00,SE,131,3.0,6.0,61,0.00,,,0.00,0.000000,,2013-05-27 10:02:00,
2013-05-27 05:23:00,43.0,30.0,-100.00,SE,131,3.0,6.0,61,0.00,,,0.00,0.000000,,2013-05-27 10:23:00,
2013-05-27 05:32:00,43.0,30.0,-100.00,SE,131,3.0,6.0,61,0.00,,,0.00,0.000000,,2013-05-27 10:32:00,
2013-05-27 05:42:00,43.0,30.0,-100.00,SE,131,3.0,6.0,61,0.00,,,0.00,0.000000,,2013-05-27 10:42:00,
2013-05-27 05:52:00,43.0,30.0,-100.00,SE,131,3.0,6.0,61,0.00,,,0.00,0.000000,,2013-05-27 10:52:00,
2013-05-27 06:22:00,43.0,29.0,-100.00,ESE,119,3.0,7.0,58,0.00,,,0.00,23.000000,,2013-05-27 11:22:00,
2013-05-27 06:32:00,43.0,29.0,-100.00,ESE,119,3.0,7.0,58,0.00,,,0.00,23.000000,,2013-05-27 11:32:00,
2013-05-27 06:42:00,43.0,29.0,-100.00,ESE,119,3.0,7.0,58,0.00,,,0.00,23.000000,,2013-05-27 11:42:00,
2013-05-27 06:52:00,43.0,29.0,-100.00,ESE,119,3.0,7.0,58,0.00,,,0.00,23.000000,,2013-05-27 11:52:00,
2013-05-27 07:01:00,43.0,29.0,-100.00,ESE,119,3.0,7.0,58,0.00,,,0.00,23.000000,,2013-05-27 12:01:00,
2013-05-27 07:22:00,49.0,31.0,-100.00,SE,137,4.0,9.0,49,0.00,,,0.00,175.000000,,2013-05-27 12:22:00,
2013-05-27 07:32:00,49.0,31.0,-100.00,SE,137,4.0,9.0,49,0.00,,,0.00,175.000000,,2013-05-27 12:32:00,
2013-05-27 07:42:00,49.0,31.0,-100.00,SE,137,4.0,9.0,49,0.00,,,0.00,175.000000,,2013-05-27 12:42:00,
2013-05-27 07:52:00,49.0,31.0,-100.00,SE,137,4.0,9.0,49,0.00,,,0.00,175.000000,,2013-05-27 12:52:00,
2013-05-27 08:01:00,49.0,31.0,-100.00,SE,137,4.0,9.0,49,0.00,,,0.00,175.000000,,2013-05-27 13:01:00,
2013-05-27 08:22:00,55.0,32.0,-100.00,SE,126,3.0,10.0,42,0.00,,,0.00,397.000000,,2013-05-27 13:22:00,
2013-05-27 08:32:00,55.0,32.0,-100.00,SE,126,3.0,10.0,42,0.00,,,0.00,397.000000,,2013-05-27 13:32:00,
2013-05-27 08:42:00,55.0,32.0,-100.00,SE,126,3.0,10.0,42,0.00,,,0.00,397.000000,,2013-05-27 13:42:00,
2013-05-27 08:53:00,55.0,32.0,-100.00,SE,126,3.0,10.0,42,0.00,,,0.00,397.000000,,2013-05-27 13:53:00,
2013-05-27 09:01:00,55.0,32.0,-100.00,SE,126,3.0,10.0,42,0.00,,,0.00,397.000000,,2013-05-27 14:01:00,
2013-05-27 09:22:00,61.0,36.0,-100.00,SE,140,5.0,13.0,39,0.00,,,0.00,562.000000,,2013-05-27 14:22:00,
2013-05-27 09:32:00,61.0,36.0,-100.00,SE,140,5.0,13.0,39,0.00,,,0.00,562.000000,,2013-05-27 14:32:00,
2013-05-27 09:42:00,61.0,36.0,-100.00,SE,140,5.0,13.0,39,0.00,,,0.00,562.000000,,2013-05-27 14:42:00,
2013-05-27 09:52:00,61.0,36.0,-100.00,SE,140,5.0,13.0,39,0.00,,,0.00,562.000000,,2013-05-27 14:52:00,
2013-05-27 10:01:00,61.0,36.0,-100.00,SE,140,5.0,13.0,39,0.00,,,0.00,562.000000,,2013-05-27 15:01:00,
2013-05-27 10:02:00,62.0,36.0,-100.00,ESE,118,4.0,14.0,38,0.00,,,0.00,583.000000,,2013-05-27 15:02:00,
2013-05-27 10:22:00,62.0,36.0,-100.00,ESE,118,4.0,14.0,38,0.00,,,0.00,583.000000,,2013-05-27 15:22:00,
2013-05-27 10:33:00,62.0,36.0,-100.00,ESE,118,4.0,14.0,38,0.00,,,0.00,583.000000,,2013-05-27 15:33:00,
2013-05-27 10:43:00,62.0,36.0,-100.00,ESE,118,4.0,14.0,38,0.00,,,0.00,583.000000,,2013-05-27 15:43:00,
2013-05-27 10:53:00,62.0,36.0,-100.00,ESE,118,4.0,14.0,38,0.00,,,0.00,583.000000,,2013-05-27 15:53:00,
2013-05-27 11:02:00,65.0,36.0,-100.00,ESE,121,6.0,14.0,34,0.00,,,0.00,521.000000,,2013-05-27 16:02:00,
2013-05-27 11:23:00,65.0,36.0,-100.00,ESE,121,6.0,14.0,34,0.00,,,0.00,521.000000,,2013-05-27 16:23:00,
2013-05-27 11:33:00,65.0,36.0,-100.00,ESE,121,6.0,14.0,34,0.00,,,0.00,521.000000,,2013-05-27 16:33:00,
2013-05-27 11:42:00,65.0,36.0,-100.00,ESE,121,6.0,14.0,34,0.00,,,0.00,521.000000,,2013-05-27 16:42:00,
2013-05-27 11:53:00,65.0,36.0,-100.00,ESE,121,6.0,14.0,34,0.00,,,0.00,521.000000,,2013-05-27 16:53:00,
2013-05-27 12:02:00,69.0,37.0,-100.00,SSE,147,6.0,18.0,31,0.00,,,0.00,894.000000,,2013-05-27 17:02:00,
2013-05-27 12:22:00,69.0,37.0,-100.00,SSE,147,6.0,18.0,31,0.00,,,0.00,894.000000,,2013-05-27 17:22:00,
2013-05-27 12:32:00,69.0,37.0,-100.00,SSE,147,6.0,18.0,31,0.00,,,0.00,894.000000,,2013-05-27 17:32:00,
2013-05-27 12:43:00,69.0,37.0,-100.00,SSE,147,6.0,18.0,31,0.00,,,0.00,894.000000,,2013-05-27 17:43:00,
2013-05-27 12:52:00,69.0,37.0,-100.00,SSE,147,6.0,18.0,31,0.00,,,0.00,894.000000,,2013-05-27 17:52:00,
2013-05-27 14:22:00,71.0,35.0,-100.00,SE,140,7.0,16.0,27,-99.99,,,0.00,876.000000,,2013-05-27 19:22:00,
2013-05-27 14:32:00,71.0,35.0,-100.00,SE,140,7.0,16.0,27,-99.99,,,0.00,876.000000,,2013-05-27 19:32:00,
2013-05-27 14:42:00,71.0,35.0,-100.00,SE,140,7.0,16.0,27,-99.99,,,0.00,876.000000,,2013-05-27 19:42:00,
2013-05-27 14:52:00,71.0,35.0,-100.00,SE,140,7.0,16.0,27,-99.99,,,0.00,876.000000,,2013-05-27 19:52:00,
2013-05-27 15:01:00,71.0,35.0,-100.00,SE,140,7.0,16.0,27,-99.99,,,0.00,876.000000,,2013-05-27 20:01:00,
2013-05-27 15:22:00,69.0,35.0,-100.00,ESE,120,6.0,15.0,29,0.00,,,0.00,618.000000,,2013-05-27 20:22:00,
2013-05-27 15:32:00,69.0,35.0,-100.00,ESE,120,6.0,15.0,29,0.00,,,0.00,618.000000,,2013-05-27 20:32:00,
2013-05-27 15:42:00,69.0,35.0,-100.00,ESE,120,6.0,15.0,29,0.00,,,0.00,618.000000,,2013-05-27 20:42:00,
2013-05-27 15:52:00,69.0,35.0,-100.00,ESE,120,6.0,15.0,29,0.00,,,0.00,618.000000,,2013-05-27 20:52:00,
2013-05-27 16:01:00,69.0,35.0,-100.00,ESE,120,6.0,15.0,29,0.00,,,0.00,618.000000,,2013-05-27 21:01:00,
2013-05-27 16:02:00,67.0,35.0,-100.00,SSE,152,7.0,17.0,30,0.00,,,0.00,645.000000,,2013-05-27 21:02:00,
2013-05-27 16:22:00,67.0,35.0,-100.00,SSE,152,7.0,17.0,30,0.00,,,0.00,645.000000,,2013-05-27 21:22:00,
2013-05-27 16:33:00,67.0,35.0,-100.00,SSE,152,7.0,17.0,30,0.00,,,0.00,645.000000,,2013-05-27 21:33:00,
2013-05-27 16:43:00,67.0,35.0,-100.00,SSE,152,7.0,17.0,30,0.00,,,0.00,645.000000,,2013-05-27 21:43:00,
2013-05-27 16:53:00,67.0,35.0,-100.00,SSE,152,7.0,17.0,30,0.00,,,0.00,645.000000,,2013-05-27 21:53:00,
2013-05-27 17:02:00,66.0,36.0,-100.00,SSE,156,6.0,17.0,33,0.00,,,0.00,434.000000,,2013-05-27 22:02:00,
2013-05-27 17:23:00,66.0,36.0,-100.00,SSE,156,6.0,17.0,33,0.00,,,0.00,434.000000,,2013-05-27 22:23:00,
2013-05-27 17:33:00,66.0,36.0,-100.00,SSE,156,6.0,17.0,33,0.00,,,0.00,434.000000,,2013-05-27 22:33:00,
2013-05-27 17:42:00,66.0,36.0,-100.00,SSE,156,6.0,17.0,33,0.00,,,0.00,434.000000,,2013-05-27 22:42:00,
2013-05-27 17:53:00,66.0,36.0,-100.00,SSE,156,6.0,17.0,33,0.00,,,0.00,434.000000,,2013-05-27 22:53:00,
2013-05-27 18:22:00,63.0,33.0,-100.00,SSE,163,6.0,16.0,33,0.00,,,0.00,243.000000,,2013-05-27 23:22:00,
2013-05-27 18:32:00,63.0,33.0,-100.00,SSE,163,6.0,16.0,33,0.00,,,0.00,243.000000,,2013-05-27 23:32:00,
2013-05-27 18:42:00,63.0,33.0,-100.00,SSE,163,6.0,16.0,33,0.00,,,0.00,243.000000,,2013-05-27 23:42:00,
2013-05-27 18:52:00,63.0,33.0,-100.00,SSE,163,6.0,16.0,33,0.00,,,0.00,243.000000,,2013-05-27 23:52:00,
2013-05-27 19:01:00,63.0,33.0,-100.00,SSE,163,6.0,16.0,33,0.00,,,0.00,243.000000,,2013-05-28 00:01:00,
2013-05-27 19:22:00,61.0,35.0,-100.00,SSE,154,4.0,13.0,37,0.00,,,0.00,141.000000,,2013-05-28 00:22:00,
2013-05-27 19:32:00,61.0,35.0,-100.00,SSE,154,4.0,13.0,37,0.00,,,0.00,141.000000,,2013-05-28 00:32:00,
2013-05-27 19:42:00,61.0,35.0,-100.00,SSE,154,4.0,13.0,37,0.00,,,0.00,141.000000,,2013-05-28 00:42:00,
2013-05-27 19:52:00,61.0,35.0,-100.00,SSE,154,4.0,13.0,37,0.00,,,0.00,141.000000,,2013-05-28 00:52:00,
2013-05-27 20:01:00,61.0,35.0,-100.00,SSE,154,4.0,13.0,37,0.00,,,0.00,141.000000,,2013-05-28 01:01:00,
2013-05-27 20:02:00,58.0,37.0,-100.00,SE,144,4.0,10.0,46,0.00,,,0.00,50.000000,,2013-05-28 01:02:00,
2013-05-27 20:22:00,58.0,37.0,-100.00,SE,144,4.0,10.0,46,0.00,,,0.00,50.000000,,2013-05-28 01:22:00,
2013-05-27 20:32:00,58.0,37.0,-100.00,SE,144,4.0,10.0,46,0.00,,,0.00,50.000000,,2013-05-28 01:32:00,
2013-05-27 20:42:00,58.0,37.0,-100.00,SE,144,4.0,10.0,46,0.00,,,0.00,50.000000,,2013-05-28 01:42:00,
2013-05-27 20:52:00,58.0,37.0,-100.00,SE,144,4.0,10.0,46,0.00,,,0.00,50.000000,,2013-05-28 01:52:00,
2013-05-27 21:22:00,55.0,39.0,-100.00,SE,139,2.0,8.0,54,0.00,,,0.00,6.000000,,2013-05-28 02:22:00,
2013-05-27 21:32:00,55.0,39.0,-100.00,SE,139,2.0,8.0,54,0.00,,,0.00,6.000000,,2013-05-28 02:32:00,
2013-05-27 21:42:00,55.0,39.0,-100.00,SE,139,2.0,8.0,54,0.00,,,0.00,6.000000,,2013-05-28 02:42:00,
2013-05-27 21:52:00,55.0,39.0,-100.00,SE,139,2.0,8.0,54,0.00,,,0.00,6.000000,,2013-05-28 02:52:00,
2013-05-27 22:01:00,55.0,39.0,-100.00,SE,139,2.0,8.0,54,0.00,,,0.00,6.000000,,2013-05-28 03:01:00,
2013-05-27 22:02:00,55.0,38.0,-100.00,SE,143,3.0,10.0,53,0.00,,,0.00,0.000000,,2013-05-28 03:02:00,
2013-05-27 22:22:00,55.0,38.0,-100.00,SE,143,3.0,10.0,53,0.00,,,0.00,0.000000,,2013-05-28 03:22:00,
2013-05-27 22:33:00,55.0,38.0,-100.00,SE,143,3.0,10.0,53,0.00,,,0.00,0.000000,,2013-05-28 03:33:00,
2013-05-27 22:43:00,55.0,38.0,-100.00,SE,143,3.0,10.0,53,0.00,,,0.00,0.000000,,2013-05-28 03:43:00,
2013-05-27 22:53:00,55.0,38.0,-100.00,SE,143,3.0,10.0,53,0.00,,,0.00,0.000000,,2013-05-28 03:53:00,
2013-05-27 23:02:00,55.0,39.0,-100.00,SE,135,4.0,8.0,54,0.00,,,0.00,0.000000,,2013-05-28 04:02:00,
2013-05-27 23:23:00,55.0,39.0,-100.00,SE,135,4.0,8.0,54,0.00,,,0.00,0.000000,,2013-05-28 04:23:00,
2013-05-27 23:33:00,55.0,39.0,-100.00,SE,135,4.0,8.0,54,0.00,,,0.00,0.000000,,2013-05-28 04:33:00,
2013-05-27 23:43:00,55.0,39.0,-100.00,SE,135,4.0,8.0,54,0.00,,,0.00,0.000000,,2013-05-28 04:43:00,
2013-05-27 23:53:00,55.0,39.0,-100.00,SE,135,4.0,8.0,54,0.00,,,0.00,0.000000,,2013-05-28 04:53:00,